Theta_e
353 354 355 355 356 357 357 354 354 354 355 353 351 349 347 345 341 340 339 342 343 348 351 350 353 355 356 357 356 355 355 355 353 353 354 354 351 347 346 345 344 345 345 344 343 343 342 342 342 342 341 341 341 341 341 342 342 343 343 342 342 343 341 341 341 342 342 342 342 343 342 341 341 341
355 359 356 356 354 354 353 353 354 356 356 355 355 351 349 348 346 342 340 341 342 345 349 350 349 354 354 355 355 355 355 354 353 353 353 352 348 345 344 343 341 339 340 340 339 340 339 339 339 339 339 338 338 339 339 339 341 341 341 341 341 341 339 338 340 341 340 339 339 339 338 339 340 340
358 355 353 353 354 353 353 355 355 356 356 354 354 354 352 349 350 346 345 341 343 347 344 347 347 348 353 353 355 354 355 354 352 352 352 352 348 343 341 341 337 336 335 335 336 336 338 338 338 338 337 337 336 336 336 336 337 339 339 338 339 337 335 335 336 336 335 334 334 333 334 335 337 338
357 356 353 353 353 353 354 355 356 356 356 354 352 351 350 351 351 351 347 344 341 346 346 345 344 346 349 351 351 350 348 344 346 348 350 350 342 338 339 338 335 335 334 334 334 334 335 336 336 337 337 337 336 335 334 335 336 336 336 336 334 333 333 333 333 333 333 333 332 332 332 333 334 336
356 355 353 353 354 354 354 355 355 356 356 354 352 351 349 350 350 350 347 344 341 343 346 342 342 344 347 344 339 331 333 337 339 340 345 349 347 346 342 337 335 335 334 333 333 332 332 332 333 334 335 335 336 334 333 332 333 332 332 331 329 329 330 331 331 331 332 331 331 330 330 331 333 333
355 353 352 352 353 354 354 354 354 355 354 353 352 352 351 349 349 349 349 344 343 339 342 340 342 341 346 336 334 333 332 334 338 336 342 345 345 341 340 336 334 335 333 332 330 329 329 329 329 330 331 332 333 333 331 328 328 328 327 326 326 326 326 327 327 328 329 329 328 327 327 329 330 329
352 350 353 352 353 353 352 351 351 352 352 353 352 352 351 349 348 349 348 346 339 337 336 340 339 340 340 335 334 334 332 332 331 332 334 342 343 342 341 337 335 336 333 329 328 327 327 326 326 327 328 329 330 330 328 325 323 325 324 323 324 324 324 324 325 326 326 327 327 326 326 327 328 328
351 352 351 351 351 353 350 350 350 350 351 351 351 349 349 348 348 347 347 348 341 338 334 337 337 338 338 338 333 330 327 325 324 324 325 324 328 333 335 335 332 331 330 329 327 327 326 325 325 325 326 326 326 326 325 323 322 322 322 322 323 323 323 322 323 323 323 324 324 324 325 325 326 326
351 351 351 350 350 351 349 349 349 349 349 349 350 349 347 346 346 347 347 348 343 338 334 332 335 336 336 336 336 329 322 320 320 321 321 321 321 320 320 321 323 326 325 325 325 324 324 324 324 324 324 325 325 326 325 323 322 321 321 321 321 322 322 321 321 321 321 321 321 321 322 323 324 324
351 351 351 350 349 349 349 348 347 347 347 346 346 347 348 348 347 346 345 344 341 337 335 333 330 333 332 331 331 333 327 319 316 316 317 318 320 320 317 318 319 321 321 321 320 322 321 321 323 323 323 324 325 326 325 323 322 321 320 320 320 321 321 321 320 320 320 320 320 320 320 322 323 324
351 351 351 349 350 350 349 347 346 346 345 346 345 346 346 347 348 344 341 340 337 335 332 331 331 328 330 330 327 332 329 323 317 314 313 313 317 318 318 317 316 318 317 320 322 321 321 321 320 322 322 323 325 326 326 325 324 322 320 319 319 319 319 319 319 319 319 319 318 317 318 319 322 323
351 351 351 351 351 351 348 347 345 346 345 344 343 342 343 345 343 338 336 334 333 331 329 327 326 327 327 327 328 330 328 319 317 316 314 313 314 315 317 317 315 316 317 316 316 318 318 318 319 320 321 322 322 324 324 323 323 322 320 319 319 319 318 318 318 318 317 318 317 317 316 316 318 321
351 352 351 351 350 352 351 350 349 348 345 342 342 341 344 341 337 334 333 331 329 328 326 324 324 323 322 323 323 322 322 321 317 318 316 314 315 315 315 316 317 316 313 315 315 315 317 316 316 317 317 320 320 320 321 321 321 321 320 319 319 319 318 317 317 317 317 317 317 317 317 316 316 318
350 350 351 352 353 351 351 349 348 343 342 342 343 343 342 338 335 333 330 329 327 326 323 322 321 319 318 318 320 319 319 320 319 316 316 314 314 316 314 315 315 317 313 313 314 314 316 315 315 315 315 317 319 318 318 318 318 319 319 318 318 318 318 317 317 316 316 316 316 317 317 317 317 316
346 350 352 352 350 349 348 346 345 344 345 344 344 342 340 338 334 330 328 327 326 324 320 319 319 318 317 316 318 317 317 318 316 315 316 315 316 315 314 311 314 318 314 314 313 312 315 317 313 314 314 315 317 317 317 320 319 318 318 318 318 317 317 317 317 316 316 315 315 316 316 316 316 315
347 348 346 345 346 345 345 344 343 342 341 339 339 338 337 335 333 332 329 325 320 320 317 317 317 318 317 316 316 314 314 314 315 315 315 315 314 312 311 311 310 315 318 313 312 310 313 316 313 312 313 314 315 316 318 319 319 318 317 317 317 317 317 316 316 316 316 315 315 315 315 316 316 315
346 344 342 341 342 342 341 338 336 335 334 334 333 332 331 329 326 322 322 324 323 321 319 316 316 317 318 318 319 318 316 317 314 315 313 313 312 312 311 310 311 314 319 313 310 308 310 314 312 311 312 314 315 315 317 317 317 317 317 316 316 316 316 316 316 315 315 314 314 313 314 315 315 314
342 341 339 337 335 334 332 330 327 324 322 321 321 321 322 323 325 326 324 323 322 321 319 318 316 316 319 318 319 321 320 316 315 314 312 313 311 311 310 313 314 316 317 311 309 309 309 311 311 310 312 313 314 315 315 317 317 316 316 315 315 315 315 315 315 315 314 314 313 312 312 313 314 314
338 338 335 332 329 327 325 323 321 318 318 318 318 318 318 318 319 319 318 319 319 319 317 315 315 315 315 316 317 319 321 321 319 318 316 315 315 315 316 314 314 313 317 314 312 305 307 311 311 310 312 312 313 315 314 315 316 316 315 314 314 314 314 314 314 314 314 313 313 312 311 311 312 313
337 335 331 328 325 323 322 324 323 321 320 319 318 317 318 319 320 321 323 321 322 321 319 318 318 319 321 322 321 321 319 319 319 318 314 314 312 310 308 306 308 310 314 316 311 306 307 310 309 309 312 313 312 314 314 314 315 315 314 314 313 313 313 313 313 313 313 313 312 311 310 309 310 312
334 332 329 326 324 323 322 323 320 322 321 316 316 316 316 316 317 317 320 321 322 322 321 321 322 321 320 319 318 318 319 318 315 313 311 308 310 310 306 306 306 306 311 312 312 307 306 308 310 308 310 312 311 311 312 313 313 314 313 312 312 313 312 312 312 312 312 312 311 311 310 309 310 313
330 330 330 327 322 321 322 322 319 322 320 316 316 315 315 314 313 314 316 317 318 321 320 321 322 323 323 323 322 321 320 320 318 314 309 309 310 307 306 303 304 305 308 311 313 308 305 308 310 310 310 313 310 311 312 312 312 313 313 312 311 312 312 311 311 310 311 311 310 310 309 308 310 317
328 329 329 328 325 323 322 316 318 321 321 316 315 314 313 312 311 312 313 311 311 312 313 314 315 317 320 321 321 321 322 320 319 316 314 314 312 309 308 307 308 304 304 310 314 307 307 308 308 310 308 304 307 311 312 311 312 313 314 314 313 312 313 312 311 309 309 310 309 309 308 308 310 316
325 325 325 325 320 317 315 314 315 316 318 316 315 314 311 310 309 312 313 314 313 313 312 312 314 314 315 314 314 314 315 316 318 315 314 314 313 309 308 307 305 302 303 310 314 308 307 309 307 310 308 304 301 306 310 309 311 312 312 312 311 311 313 312 311 310 309 309 308 308 307 308 309 314
323 322 322 321 317 313 312 312 312 312 315 318 316 313 311 311 314 316 314 315 317 314 314 314 312 312 312 312 313 313 313 312 312 312 312 311 310 310 308 305 304 303 305 310 313 311 306 308 306 308 307 307 305 306 307 310 310 310 312 312 311 311 313 312 312 312 310 309 308 307 307 307 309 311
321 320 320 320 317 313 312 312 310 311 313 316 318 316 312 313 317 317 317 315 313 312 311 311 311 310 310 310 310 311 311 310 311 309 309 309 309 311 311 309 306 303 304 311 312 311 309 306 307 306 306 305 303 306 305 305 307 309 312 313 312 311 312 310 311 312 313 313 313 309 309 308 310 310
320 321 321 322 318 311 309 308 309 310 312 318 315 309 311 314 318 317 313 314 311 311 311 310 310 310 310 309 309 310 309 310 312 312 312 312 312 312 311 310 309 307 307 310 312 311 311 308 311 307 304 305 304 304 304 303 304 309 311 310 311 311 311 310 310 311 311 311 312 309 309 309 310 310
321 320 320 320 310 307 304 307 309 311 317 315 307 310 314 317 317 315 314 312 312 312 311 310 309 309 310 310 310 310 310 310 311 311 311 311 311 312 312 313 314 313 312 310 310 310 311 310 309 309 308 305 303 302 302 305 306 306 307 310 310 310 310 310 309 311 312 312 311 312 311 311 314 314
322 317 312 307 306 306 306 307 310 311 312 309 310 312 316 319 314 313 311 312 311 310 310 310 310 310 310 311 311 312 313 313 312 311 310 311 310 310 311 311 311 310 309 311 310 310 309 309 308 308 310 308 305 305 304 303 305 305 307 307 307 309 310 310 310 309 311 311 310 310 309 310 311 313
314 310 308 308 308 311 314 317 317 317 316 316 318 318 318 313 313 312 311 312 311 310 310 310 309 309 310 310 311 312 312 311 309 309 309 308 308 309 308 307 307 308 307 309 311 310 310 310 308 308 308 309 308 305 305 305 305 306 308 307 307 311 309 309 309 310 310 309 310 310 310 311 311 311
314 315 317 316 315 315 318 319 319 319 319 319 316 314 313 313 312 313 312 311 311 312 310 309 309 309 310 311 311 310 310 309 310 311 310 308 307 308 308 308 306 306 307 309 309 311 311 310 310 309 308 306 307 306 306 307 306 305 306 308 308 303 306 309 310 309 309 310 311 311 311 311 311 312
319 319 318 317 320 319 318 317 315 314 313 313 312 310 311 312 314 316 316 315 313 312 310 309 310 309 309 308 307 308 308 308 309 310 309 308 308 307 307 306 304 305 306 307 307 310 311 311 311 310 309 309 306 306 308 308 305 305 306 307 308 308 309 307 308 309 309 310 310 310 311 310 309 310
319 317 316 315 314 313 312 312 310 310 310 312 312 312 312 313 313 312 310 309 309 309 309 307 307 307 308 307 308 307 306 307 307 309 309 309 307 307 307 304 304 304 303 304 306 308 310 310 311 311 311 310 309 309 307 304 305 306 305 305 307 307 308 309 309 308 310 310 309 310 310 311 311 310
314 313 312 311 311 310 309 308 309 309 309 309 308 309 310 309 308 309 310 309 308 309 309 308 307 307 307 306 307 307 306 307 308 309 308 307 308 306 304 303 303 305 305 304 304 305 308 309 310 310 311 311 310 311 309 306 304 306 306 306 306 306 308 309 310 309 309 307 307 309 309 309 311 311
312 310 310 310 310 310 309 309 308 309 309 309 308 308 308 309 310 310 309 308 310 309 308 307 307 307 306 306 307 306 306 306 306 307 308 309 308 306 304 303 303 304 304 304 304 305 307 308 309 308 308 309 308 309 310 309 306 306 307 307 307 307 307 309 309 309 309 309 309 308 308 308 309 311
310 310 309 308 308 308 308 309 310 309 308 309 308 308 308 308 310 309 309 310 309 308 307 306 306 306 306 306 307 307 306 306 305 305 306 306 306 305 306 305 304 303 303 303 303 304 306 306 307 305 303 303 302 301 303 310 309 307 305 305 307 307 308 309 310 310 309 308 308 308 306 305 307 310
309 309 308 308 308 309 309 309 309 309 309 308 308 309 309 309 309 310 310 309 309 308 308 307 306 307 307 307 307 307 306 305 304 305 304 305 305 304 303 304 305 304 303 303 303 303 305 305 306 305 303 301 300 299 301 308 307 308 308 306 307 307 308 308 309 309 308 308 309 307 306 306 307 308
307 308 308 309 309 309 310 309 310 309 309 309 309 310 309 308 308 308 309 309 308 308 307 307 307 307 307 307 306 305 305 306 305 304 305 304 304 304 303 302 302 303 302 303 304 304 304 305 305 305 304 301 300 299 300 304 307 307 307 308 306 307 308 308 307 306 307 309 308 308 309 306 307 307
309 310 310 310 310 310 309 310 310 309 309 309 310 309 308 307 307 308 308 308 309 308 307 307 307 307 307 306 306 306 305 304 304 304 304 304 305 304 303 303 302 303 304 303 304 304 305 304 304 305 304 303 301 301 302 302 303 306 308 305 307 308 308 307 307 307 306 305 306 309 311 311 310 310
312 312 311 311 310 310 310 311 310 310 309 310 309 309 308 307 307 308 308 308 307 307 307 307 307 306 306 306 306 305 305 305 305 305 304 304 305 305 304 304 303 303 304 302 302 302 303 303 304 305 306 306 306 307 306 306 306 309 310 309 305 307 308 308 307 306 305 306 308 307 305 307 305 307
312 311 311 312 311 311 310 310 310 310 309 309 309 309 309 308 307 307 307 307 308 306 306 307 307 306 305 306 305 304 304 304 305 305 305 305 305 304 304 303 303 303 302 301 302 302 302 303 305 306 308 309 309 308 306 304 302 304 305 307 307 306 307 308 309 308 306 308 307 305 304 303 304 305
313 312 312 311 311 311 310 310 310 309 309 309 309 309 308 308 308 309 308 308 307 307 306 306 306 305 305 305 305 305 304 304 304 305 305 305 304 305 304 303 302 302 302 300 301 301 304 305 306 307 308 308 308 304 301 302 301 302 305 306 309 308 307 307 307 307 310 308 306 304 304 304 306 303
314 312 311 312 312 311 310 310 310 310 309 309 309 309 308 307 309 309 308 306 306 306 305 305 305 305 305 305 305 306 305 305 305 305 305 304 304 302 302 303 303 302 303 303 303 304 304 306 307 307 307 307 305 306 302 303 303 304 304 304 305 308 311 308 306 306 306 306 307 307 307 305 303 299
313 312 312 312 312 312 311 310 310 310 309 309 309 308 307 307 309 308 306 305 305 305 305 304 304 304 304 305 305 306 306 305 305 304 303 304 304 304 303 304 303 303 303 304 304 304 305 305 305 306 305 304 305 304 303 304 302 303 303 304 306 307 306 308 309 308 307 307 306 306 307 307 308 307
314 313 312 312 312 312 311 310 310 310 309 309 309 307 308 309 308 306 305 305 305 304 304 304 304 304 304 305 304 304 305 305 305 305 305 305 304 304 304 304 303 303 302 303 303 303 304 304 304 305 305 305 305 304 304 305 303 304 303 304 304 305 306 306 305 305 306 306 306 306 306 307 306 306
Wind_Speed
2 2 2 2 1 1 0 0 1 1 0 1 1 2 3 4 2 2 2 2 2 3 4 1 3 3 3 4 4 4 6 7 9 8 9 8 7 11 14 14 15 15 16 18 20 20 21 21 20 21 21 21 20 20 20 20 20 21 22 22 22 22 22 21 21 20 20 19 18 18 18 17 16 17
2 2 2 2 2 1 0 0 1 1 1 1 1 2 2 3 4 3 3 2 1 1 3 3 2 3 4 3 4 5 7 9 10 9 8 7 8 14 15 16 17 17 17 19 20 21 21 20 20 20 20 20 20 20 19 19 19 19 20 21 21 21 21 21 20 19 19 19 19 19 17 17 18 17
2 3 3 1 1 0 1 0 1 1 0 1 1 0 1 2 3 3 2 1 2 1 1 2 3 3 5 4 5 5 6 8 10 8 6 8 12 13 14 16 17 17 18 19 19 20 20 20 20 20 20 20 20 20 19 19 18 18 19 20 20 20 19 19 19 19 19 19 18 18 18 17 17 18
3 4 3 2 2 1 1 1 0 0 1 1 1 1 0 0 0 2 3 1 2 3 2 2 4 5 6 6 5 6 6 8 10 6 5 10 13 10 8 14 17 17 18 19 19 19 19 19 19 19 19 19 19 19 19 18 18 18 18 19 19 19 18 18 18 18 18 17 17 17 17 17 17 18
4 4 4 3 2 1 2 1 1 0 1 1 1 1 1 1 1 2 2 3 4 3 3 4 3 4 4 5 6 7 6 7 7 9 7 7 8 7 7 9 15 18 18 18 19 19 19 19 19 19 18 18 17 17 18 17 17 17 17 17 16 16 17 17 17 17 17 17 17 17 17 17 17 18
3 4 4 3 2 3 2 1 1 0 0 0 1 0 0 1 1 1 2 3 3 2 2 4 3 5 4 7 7 6 6 6 6 9 8 6 9 8 7 8 10 18 19 19 20 20 19 19 19 18 18 18 17 17 16 16 16 16 16 15 14 15 15 16 17 17 17 17 17 17 16 17 17 17
4 4 4 4 3 3 2 1 0 1 1 0 1 2 2 1 1 1 2 3 2 3 2 3 3 3 5 6 6 6 6 6 7 9 8 7 7 7 8 8 7 14 17 20 20 19 19 19 19 18 18 18 18 18 16 14 14 14 13 13 14 14 15 15 16 17 16 16 16 16 16 16 16 16
5 6 5 4 4 4 3 2 2 0 1 1 1 2 1 1 1 1 2 3 3 3 4 3 3 2 5 6 7 7 7 8 8 8 8 9 9 9 8 8 8 13 19 20 19 19 19 19 18 18 17 17 16 15 14 13 13 14 14 14 13 13 13 12 14 15 15 15 15 15 15 15 15 15
6 6 6 5 6 5 5 4 3 2 3 2 2 2 1 1 1 1 2 3 5 6 5 4 2 3 3 4 5 6 7 8 9 8 8 8 9 10 10 8 8 12 16 17 17 17 18 18 18 18 17 17 16 15 14 14 13 14 14 14 14 13 12 12 12 13 12 13 13 13 14 14 14 14
6 6 6 6 7 6 6 5 3 3 3 3 2 2 2 2 2 3 4 4 5 6 5 5 5 3 4 5 6 6 5 5 8 8 8 9 8 8 9 9 7 8 8 8 8 11 13 16 17 18 18 18 17 16 16 15 14 14 14 14 14 14 13 13 13 13 13 12 12 12 13 14 14 14
5 5 5 6 6 6 5 5 4 3 3 2 2 1 3 3 3 4 4 4 6 5 6 5 4 5 4 4 7 6 6 5 5 7 7 9 7 8 7 8 7 6 8 12 15 14 13 15 13 15 18 18 18 17 17 15 15 14 14 14 15 15 15 15 14 14 13 13 12 11 12 12 13 14
6 7 7 6 6 5 5 4 4 3 2 2 1 1 2 3 6 6 4 5 5 6 5 5 4 3 5 6 4 2 3 6 6 5 6 9 7 8 8 8 7 6 7 7 7 9 10 10 12 12 16 18 18 17 15 18 17 16 15 15 15 15 15 15 15 15 14 14 13 13 13 13 13 13
8 7 6 6 5 5 5 6 5 4 3 2 2 2 3 6 7 6 4 6 7 5 7 6 4 5 5 4 4 4 4 4 5 2 6 9 6 5 7 7 7 6 6 7 8 9 7 8 8 8 9 11 14 15 16 13 17 17 15 15 15 15 15 15 15 15 15 15 14 14 14 14 14 14
8 8 7 6 11 9 8 7 7 7 6 5 4 4 5 6 5 5 7 5 6 5 6 5 5 5 4 3 3 4 3 4 5 6 6 9 5 6 8 7 7 6 5 6 8 7 6 6 8 8 9 8 10 9 10 10 12 14 15 15 15 16 16 16 15 15 15 15 15 14 14 14 14 14
5 8 7 7 10 11 11 9 10 8 9 9 11 11 9 6 7 9 7 4 5 6 5 4 4 5 6 4 4 4 5 4 5 5 4 5 4 3 4 5 3 7 5 4 6 8 7 6 8 8 8 8 9 9 10 13 15 16 16 16 16 16 16 16 17 16 16 15 15 14 14 14 14 14
9 8 7 7 6 5 8 9 9 11 14 14 16 16 15 14 12 8 6 8 7 6 7 6 4 5 6 6 4 5 5 6 6 6 6 6 6 6 7 4 3 3 4 3 6 7 6 5 7 8 7 7 7 9 12 14 14 15 15 16 16 16 16 16 17 17 16 16 15 14 14 14 14 14
10 10 8 7 6 7 15 11 8 9 12 16 19 19 19 19 16 14 15 11 7 5 7 7 5 3 4 5 3 3 5 7 9 6 7 6 7 6 7 5 4 4 2 2 5 7 5 4 6 7 6 5 6 7 12 15 15 15 15 16 16 16 17 17 17 16 16 15 15 15 14 14 14 14
9 10 9 9 7 6 7 7 8 8 8 8 9 8 8 9 14 16 17 16 14 9 5 6 5 2 2 4 3 4 5 8 8 8 8 7 8 8 8 5 5 4 3 2 2 5 5 4 5 7 6 5 6 7 11 14 14 14 15 15 15 15 15 15 14 15 15 15 15 15 15 14 14 14
9 8 7 9 9 8 8 7 10 10 9 9 8 9 10 10 9 9 8 7 7 7 6 7 7 6 4 5 5 5 4 6 6 7 8 7 8 7 5 6 6 6 6 4 1 4 3 3 4 6 5 5 6 6 9 13 13 13 14 14 14 14 14 15 15 15 15 15 15 15 15 15 14 13
9 9 10 10 10 10 9 13 17 14 11 10 11 10 10 10 10 10 10 12 12 9 7 6 6 5 6 6 6 5 6 8 9 9 8 6 6 6 7 7 4 6 5 6 3 3 3 3 3 4 3 4 6 6 6 8 12 12 12 14 15 15 15 14 15 15 15 15 15 15 15 14 13 12
10 10 11 11 11 11 10 15 16 17 16 12 12 11 10 9 10 9 9 14 16 15 15 15 15 13 13 12 11 11 10 9 8 8 7 4 2 6 7 5 5 6 4 5 4 1 3 4 2 3 3 4 6 6 6 6 10 12 12 12 13 14 14 13 13 14 14 14 14 14 14 14 12 11
7 9 16 15 13 12 12 15 17 17 16 12 11 11 11 10 10 8 7 7 10 15 15 15 15 14 14 15 14 11 9 7 2 5 7 4 4 6 5 5 5 4 5 6 5 1 2 2 2 0 0 2 4 5 5 7 7 9 9 11 11 13 12 12 13 13 14 13 13 13 13 14 12 7
8 9 13 19 14 14 14 17 16 17 16 13 11 10 11 10 9 7 7 8 8 7 8 7 8 8 10 8 7 10 15 13 10 6 5 3 5 6 5 3 2 2 5 6 6 1 2 2 3 2 0 2 3 4 5 6 6 6 6 6 7 13 13 13 12 12 13 13 14 14 14 14 11 6
10 8 9 13 18 19 17 16 16 15 17 14 10 8 9 10 9 6 7 7 8 8 7 7 8 7 7 7 7 7 8 9 8 7 6 5 6 6 5 5 5 4 2 4 5 2 1 1 3 3 3 2 3 4 4 5 6 5 5 6 6 9 9 9 9 10 12 11 12 12 13 12 11 6
12 10 9 10 16 18 17 16 16 16 16 14 10 10 9 9 10 9 9 11 14 9 9 8 7 7 6 6 6 6 7 7 7 7 7 5 5 5 6 5 5 5 3 4 5 2 3 2 3 2 3 2 1 2 3 3 5 6 5 4 5 7 7 7 6 7 9 11 12 13 12 13 13 10
11 11 10 10 15 20 20 18 17 16 15 15 9 8 13 16 15 10 8 7 8 8 7 7 6 6 6 6 7 7 7 7 7 7 6 6 6 5 4 3 4 4 3 4 6 2 2 4 3 2 1 1 3 3 3 3 4 6 5 4 4 5 6 6 6 6 7 6 6 9 9 12 12 12
13 11 11 11 18 16 13 17 17 15 16 11 10 16 16 14 16 13 7 8 8 8 6 7 7 6 6 7 7 7 7 6 6 6 6 6 7 6 5 5 5 5 3 4 5 3 3 2 1 3 3 2 3 2 3 3 4 6 5 5 4 5 6 6 6 6 7 7 6 9 8 10 10 10
14 14 13 15 18 15 14 15 15 15 12 11 15 15 16 16 13 8 8 8 8 8 7 7 7 6 5 6 6 6 5 5 5 5 5 5 4 4 4 5 7 6 6 5 5 4 2 2 1 1 2 3 3 2 2 1 2 4 5 5 4 6 6 6 6 6 6 6 6 7 7 8 8 8
14 17 24 21 16 15 14 15 14 12 13 16 16 17 16 14 7 8 8 8 7 8 7 7 7 6 6 5 6 5 5 6 6 6 5 5 4 4 4 6 6 6 5 4 4 3 3 2 2 1 1 1 1 1 1 2 3 5 6 6 5 5 7 6 6 6 6 5 5 6 7 6 7 7
25 24 24 22 20 16 14 11 9 7 9 14 16 15 13 7 7 7 8 7 9 8 8 8 7 6 6 5 5 5 5 5 5 5 4 4 4 3 4 6 6 5 5 4 4 3 2 2 2 1 1 1 1 2 2 3 4 4 5 6 7 1 5 7 6 5 6 5 5 5 5 5 6 6
16 18 17 15 15 12 14 13 13 13 14 11 9 6 5 5 6 6 7 8 8 7 8 8 7 6 6 6 6 5 5 5 3 3 4 4 4 4 4 5 5 5 4 4 4 4 2 2 1 1 1 1 1 2 1 1 4 5 5 5 5 5 6 5 6 6 5 4 3 3 3 4 4 5
14 14 16 17 12 11 10 8 7 6 6 7 6 6 6 5 6 9 12 10 6 6 7 7 6 6 5 5 5 5 4 4 3 2 3 3 3 4 3 3 4 3 4 5 5 5 4 2 1 1 0 0 3 2 0 4 5 5 5 5 4 3 4 5 5 5 6 4 4 4 4 4 5 5
14 14 13 11 10 8 8 7 7 6 6 5 5 7 6 6 6 6 6 7 7 7 7 7 6 6 6 5 5 5 5 4 3 2 4 4 5 4 4 4 3 3 4 4 4 4 4 3 2 1 0 1 1 2 5 6 6 4 4 5 4 4 5 4 4 5 5 4 4 3 4 3 3 4
15 13 12 11 10 8 7 8 7 7 7 6 6 5 6 6 6 6 6 6 7 6 6 6 6 6 6 5 5 5 5 4 3 3 4 3 3 4 3 4 3 2 2 3 3 3 3 2 1 2 2 1 1 1 4 4 5 5 4 4 4 4 4 4 4 4 4 3 3 4 4 4 4 3
13 13 11 9 7 7 7 7 7 6 6 6 6 6 5 4 6 7 6 6 6 7 7 6 6 6 5 5 5 6 5 5 4 4 3 4 3 3 3 4 3 3 3 3 3 3 2 2 1 3 3 2 2 3 1 0 3 5 4 3 4 4 5 5 4 4 3 2 4 4 4 4 5 4
11 10 11 10 9 7 7 7 7 7 7 6 6 7 7 6 6 7 7 6 7 7 7 6 6 5 5 5 5 5 5 5 4 4 4 3 3 3 3 3 3 2 2 2 2 2 2 3 3 4 5 4 4 4 4 3 2 3 5 4 5 5 5 5 3 2 4 5 4 3 4 4 5 5
11 9 9 8 8 7 7 6 6 6 6 7 6 6 6 7 6 6 6 7 7 7 7 7 6 6 5 5 5 5 5 5 5 4 4 3 3 2 3 3 2 2 2 2 1 1 1 3 3 3 4 4 4 4 3 3 1 1 5 4 4 4 5 5 4 5 5 4 4 4 3 4 5 6
10 9 8 7 7 6 6 7 7 6 6 6 6 6 5 5 5 6 6 6 6 6 7 6 6 6 6 6 6 5 4 4 4 4 3 3 3 3 2 2 2 1 1 1 1 1 0 2 3 2 3 4 3 3 3 3 2 2 3 3 4 4 4 4 4 5 5 5 5 5 3 4 5 6
9 8 8 8 7 7 7 7 7 7 7 6 6 6 6 6 6 6 6 6 7 7 6 6 6 6 6 5 5 5 5 4 4 4 3 3 3 3 2 2 2 1 0 3 2 2 3 4 3 3 3 3 2 2 2 3 3 5 4 2 3 4 4 4 4 4 5 6 6 5 2 1 4 6
7 7 7 7 7 6 6 6 6 6 7 6 6 6 7 7 6 6 6 7 6 6 6 6 6 6 5 5 5 4 4 5 5 4 4 3 3 2 2 1 1 0 1 3 3 3 3 3 3 2 2 1 2 3 4 4 4 3 2 2 2 4 4 4 3 4 4 5 5 4 5 6 6 7
7 7 6 6 7 7 7 6 6 6 6 6 6 6 6 6 6 6 6 6 7 6 6 6 6 6 6 5 5 5 5 4 4 4 4 4 3 2 2 2 1 1 2 3 2 3 3 3 4 6 3 2 2 1 3 1 3 5 6 5 3 2 4 4 3 3 3 4 4 4 4 5 4 5
6 7 6 6 7 6 6 7 6 6 6 6 6 6 6 6 5 8 8 9 7 6 6 6 6 5 5 5 5 5 5 5 5 5 4 4 4 3 2 1 2 1 2 3 2 2 2 2 3 2 2 0 1 0 3 3 3 4 5 5 5 3 4 5 7 4 3 5 6 5 4 3 2 4
6 7 7 6 6 6 6 6 6 6 7 6 6 6 6 5 6 7 6 6 6 6 6 6 5 5 5 4 4 5 5 5 5 4 4 3 3 3 3 2 1 1 1 1 0 0 1 1 1 2 2 3 3 1 2 3 2 2 4 5 6 6 4 5 6 4 5 7 7 5 4 3 3 4
6 6 6 6 6 6 6 6 6 6 7 6 6 6 6 6 6 6 6 6 6 6 6 6 5 5 5 5 4 4 4 5 4 5 4 3 2 2 2 2 2 1 1 1 1 2 2 3 3 3 3 3 2 2 3 2 3 3 3 3 4 5 6 6 5 3 5 5 8 8 7 4 4 5
6 6 6 6 6 6 6 6 6 6 6 6 6 6 6 6 6 6 5 6 6 6 6 5 5 5 5 5 5 5 4 4 4 4 3 3 3 3 2 2 2 2 2 1 1 2 2 2 2 2 3 2 2 2 2 2 3 3 4 4 5 5 4 5 5 5 5 5 8 11 9 8 7 4
Wind_Direction
161 131 150 168 172 225 236 44 59 59 124 177 189 184 188 167 176 213 252 245 185 61 30 57 42 17 7 58 57 62 71 82 87 88 87 83 77 67 66 62 57 54 55 58 58 57 54 51 48 46 44 43 42 41 42 42 42 42 41 41 40 35 33 27 36 38 37 37 38 42 39 33 31 29
155 115 117 154 170 177 179 21 27 65 60 120 154 177 171 166 198 193 215 255 48 82 52 45 12 357 10 66 78 76 81 75 87 85 85 81 78 69 65 63 60 57 53 53 55 55 55 52 48 46 44 43 41 39 39 39 41 42 42 41 40 38 37 33 31 35 36 36 35 36 34 29 28 26
151 149 142 171 169 166 131 27 23 43 112 126 118 201 159 178 195 178 143 185 108 351 83 52 26 8 25 44 79 81 78 86 88 66 70 78 77 73 64 62 63 61 57 55 53 53 53 50 48 46 44 43 42 39 38 39 40 41 42 41 40 39 37 34 34 36 36 35 33 31 30 27 25 22
158 152 160 179 190 168 163 165 27 54 72 75 79 55 21 36 296 143 146 220 128 48 62 52 35 24 41 19 56 66 66 50 56 67 45 93 85 76 71 65 68 62 59 57 54 51 50 48 46 44 42 41 41 40 38 37 38 38 41 42 43 41 38 38 38 37 35 33 32 30 29 27 26 24
161 161 167 184 204 180 186 181 177 172 67 75 64 56 62 84 75 125 131 141 142 98 47 46 43 37 48 48 41 73 64 54 55 71 71 71 92 82 70 69 64 64 60 58 57 54 51 49 46 44 42 41 41 40 38 36 37 37 39 41 40 37 39 40 39 37 36 34 32 31 30 30 29 27
171 162 171 189 198 198 204 158 165 29 83 52 145 84 171 177 166 133 117 132 160 129 63 58 35 61 31 77 46 68 63 60 54 70 82 86 82 80 77 73 65 62 63 62 61 58 55 51 47 43 41 40 40 40 39 37 37 39 38 36 35 38 39 40 40 39 37 35 35 35 34 33 32 32
167 169 175 186 188 193 202 193 89 49 54 143 215 226 223 200 180 120 102 131 82 133 103 78 67 52 54 75 81 72 75 73 69 69 66 85 96 91 81 75 69 60 67 67 64 59 54 50 46 41 38 37 38 39 39 39 40 39 35 33 35 38 39 38 39 38 37 36 34 34 34 33 32 32
177 174 167 185 192 195 198 199 184 58 112 135 144 162 150 147 158 98 127 122 130 144 112 39 82 358 96 89 87 79 68 66 56 67 78 71 76 79 76 71 69 63 67 65 60 56 52 49 45 41 37 35 35 37 42 44 46 46 43 38 32 32 33 35 37 37 36 34 32 31 30 30 30 30
175 172 179 173 185 185 185 199 188 150 149 142 160 180 155 130 131 117 121 129 129 145 148 131 53 63 54 74 64 76 87 82 71 60 54 57 67 69 66 68 65 63 61 57 53 52 49 46 44 40 37 36 36 39 48 52 52 50 46 42 39 34 32 34 34 34 32 31 30 28 28 27 27 27
174 175 176 175 177 179 180 177 161 162 157 153 163 180 196 174 140 125 116 106 106 121 111 118 114 40 61 56 57 57 63 85 95 79 66 56 42 59 66 56 52 51 50 48 47 47 47 44 43 40 39 40 42 50 56 56 54 51 47 44 41 38 36 34 34 32 32 29 27 27 27 27 26 25
169 169 169 169 169 167 166 161 169 164 166 177 170 197 235 226 170 126 110 102 107 112 115 85 80 97 57 79 93 71 91 73 84 99 92 67 52 49 56 60 48 46 56 57 53 50 49 45 44 39 43 42 46 53 56 53 50 49 47 45 43 40 38 36 34 33 30 29 27 25 25 24 25 26
165 164 164 161 156 153 152 154 159 158 152 160 139 208 209 222 130 117 105 92 98 99 74 92 93 57 94 74 72 97 99 89 58 45 89 90 75 67 57 51 49 33 50 48 44 38 37 41 37 37 45 41 43 45 51 49 48 45 45 44 43 41 39 36 35 33 32 30 29 26 25 25 23 23
159 153 148 145 139 136 136 144 142 147 145 146 146 176 175 131 120 109 84 116 106 91 106 102 101 103 87 72 91 61 43 57 93 77 96 91 89 94 78 56 45 37 52 57 51 38 24 36 38 38 44 39 40 43 41 42 44 42 43 42 41 39 36 34 32 30 30 29 29 29 30 29 28 26
151 149 146 145 146 140 138 132 121 114 115 126 126 137 136 125 110 113 119 114 111 117 109 117 125 99 81 87 90 105 94 94 99 96 88 97 103 87 85 72 46 28 38 60 54 39 21 33 47 40 46 37 40 43 42 39 41 41 40 40 39 37 35 33 31 29 29 28 27 28 30 31 31 30
144 145 146 139 136 133 126 114 113 113 114 122 116 106 103 105 128 133 116 102 115 120 108 111 104 110 110 99 104 97 109 88 92 89 79 94 85 71 83 82 72 32 15 46 69 47 13 25 50 45 40 37 41 42 37 30 37 39 38 37 37 35 33 30 28 27 26 27 26 26 27 29 30 30
170 143 130 113 115 125 122 112 109 108 104 98 95 95 92 90 84 78 113 132 127 126 122 107 90 102 105 114 108 110 105 111 93 86 87 84 91 86 78 71 67 7 3 44 71 59 18 16 54 52 35 35 42 39 31 30 32 35 35 35 34 34 32 29 27 26 24 23 23 22 23 25 26 27
158 143 126 116 115 111 109 107 110 111 103 95 92 88 86 80 75 73 70 68 89 102 107 111 99 88 120 110 91 118 133 125 108 109 92 89 85 83 79 66 66 16 350 43 65 65 30 12 53 58 33 32 35 35 31 29 32 31 32 31 30 30 29 26 24 23 22 22 21 20 19 19 21 22
148 133 129 126 122 112 102 106 102 96 88 87 79 72 69 77 79 79 80 83 82 79 89 107 108 69 92 119 127 115 138 124 122 115 107 108 97 84 84 87 73 46 25 56 96 71 39 7 47 54 36 23 33 39 24 26 27 28 29 29 27 26 26 24 21 21 20 20 19 19 17 15 15 16
127 128 141 134 129 125 122 122 123 113 112 103 95 91 84 82 80 73 72 71 81 86 84 93 100 103 93 99 90 77 74 88 97 104 116 110 104 105 114 77 54 49 32 37 73 81 42 342 59 55 36 29 38 26 24 19 18 21 24 24 24 22 21 21 20 19 19 19 18 17 16 12 10 9
153 148 145 135 131 129 127 132 125 121 117 107 102 94 89 85 77 72 74 86 88 89 89 86 88 86 86 93 101 106 110 106 106 101 96 94 101 100 77 67 46 50 32 29 37 89 63 3 52 69 45 41 42 20 25 6 10 14 18 17 16 16 15 16 17 17 17 17 16 15 12 9 4 1
154 158 143 132 131 127 131 134 127 125 116 109 107 104 99 95 92 93 86 81 83 84 85 86 87 85 82 82 85 91 99 112 121 117 100 96 118 91 92 79 64 49 21 26 20 65 61 18 358 83 43 45 40 29 18 14 12 9 14 12 11 12 10 11 13 14 14 14 15 14 11 6 359 360
129 133 139 134 133 132 134 135 129 126 116 111 113 112 110 107 104 102 102 97 86 82 79 75 75 78 82 84 82 83 83 81 85 118 113 141 114 93 95 97 83 71 36 24 3 72 43 326 354 40 93 47 44 24 20 17 4 4 6 3 5 8 6 9 11 11 10 10 12 15 13 7 357 7
125 126 134 130 129 131 133 133 130 127 120 118 120 122 114 110 108 117 115 105 101 90 79 64 64 55 62 65 74 83 81 75 67 59 96 130 97 101 100 112 136 78 39 8 350 70 32 31 30 345 161 77 43 15 10 14 5 5 358 356 1 3 2 3 8 6 6 8 10 12 13 10 357 8
122 131 130 125 126 129 132 131 128 124 121 122 124 119 113 122 123 134 112 108 102 92 85 79 76 75 66 70 70 61 64 63 65 65 62 69 87 97 100 86 79 83 27 345 350 101 56 345 56 28 41 51 37 355 350 5 1 360 358 351 5 357 350 359 1 360 5 8 10 9 10 11 10 8
134 133 132 131 130 129 127 125 124 124 122 124 124 124 133 133 137 133 117 115 107 102 99 93 87 83 71 69 67 70 71 72 72 71 66 71 83 96 103 99 85 84 53 1 5 132 83 31 60 34 48 50 29 351 5 328 356 359 352 345 359 3 360 2 359 2 3 8 11 6 8 7 18 23
131 132 138 139 134 132 133 133 128 122 120 119 115 131 131 134 134 125 116 113 106 100 100 95 89 88 85 84 80 76 77 82 85 86 84 76 73 57 64 83 94 86 46 360 26 58 84 50 24 47 35 57 62 23 10 355 345 345 338 357 4 7 6 1 360 5 5 5 16 7 359 9 16 23
133 131 126 121 120 121 128 125 125 125 126 125 133 136 134 129 123 121 114 112 107 103 97 97 96 95 95 98 96 94 93 88 83 84 77 80 84 89 95 91 79 85 72 37 32 41 78 90 24 54 69 56 65 41 33 355 353 340 347 1 2 18 15 5 2 3 10 6 10 1 8 18 19 21
133 131 128 126 129 133 132 125 126 129 128 132 136 130 127 126 124 119 116 110 112 108 103 101 101 101 101 105 105 104 103 101 93 85 76 68 67 66 67 68 71 67 56 43 33 33 45 98 97 58 30 55 58 31 28 17 342 341 345 346 11 26 18 5 1 7 14 11 7 11 14 13 12 13
133 130 124 127 128 126 125 123 119 117 124 130 128 129 130 127 119 122 119 118 116 113 111 111 109 108 107 105 109 112 109 104 91 86 81 77 75 82 83 75 63 50 46 42 38 37 38 49 78 88 84 59 82 72 354 350 358 7 357 351 5 11 13 5 9 10 6 11 14 19 20 7 12 15
125 126 123 124 123 125 128 127 130 126 131 128 127 126 123 122 124 124 124 123 119 117 119 117 116 115 114 108 109 105 96 93 96 99 99 96 76 69 82 79 65 57 45 31 42 40 35 50 51 108 129 96 38 41 21 11 27 7 7 3 349 328 23 0 359 8 7 7 8 18 16 16 22 18
118 119 121 128 130 132 138 130 126 125 124 120 115 104 108 114 120 121 123 128 124 120 114 113 112 113 113 115 108 96 95 92 87 97 111 105 97 87 70 72 68 57 39 35 31 31 30 49 62 252 121 119 97 47 22 0 34 13 11 5 5 19 341 345 357 7 2 353 346 10 9 17 30 26
117 117 114 116 118 122 118 118 111 108 106 112 113 112 119 116 120 119 113 103 91 94 104 107 112 112 113 106 102 100 92 94 92 104 111 98 84 62 70 69 60 49 51 35 32 16 20 26 46 42 101 307 64 57 179 50 37 15 4 3 352 345 350 0 355 2 352 334 0 15 13 18 18 20
113 115 117 117 118 119 122 119 120 116 113 105 109 114 118 117 115 112 117 117 117 121 119 121 124 123 114 110 110 110 106 105 108 101 94 77 84 74 67 77 62 45 46 44 19 11 8 8 9 29 172 195 193 40 40 41 29 17 4 353 343 349 357 355 0 355 338 354 7 1 11 16 25 16
123 123 125 128 130 129 129 130 130 131 125 125 119 114 117 118 117 119 115 117 123 124 124 126 121 120 118 119 121 117 114 109 105 91 91 89 87 92 85 83 66 50 55 47 37 14 358 354 25 70 65 63 151 43 46 41 21 12 1 350 349 350 352 343 356 0 1 17 335 351 8 12 20 17
121 129 127 126 126 128 130 131 132 135 136 135 131 127 126 120 126 126 123 129 129 129 127 125 122 125 127 129 131 130 127 118 111 102 89 99 90 91 92 90 82 60 45 43 38 12 349 21 55 97 58 44 87 96 156 303 12 5 352 10 353 344 345 348 343 349 356 11 4 355 352 3 4 8
124 129 131 134 137 137 135 139 143 144 142 142 139 139 133 133 134 135 135 138 133 132 128 127 129 130 132 133 135 130 124 118 111 107 109 101 106 101 96 88 89 78 53 50 33 13 11 38 34 69 73 52 46 42 62 148 70 357 2 2 0 350 344 342 330 329 10 12 7 352 1 348 342 355
124 127 130 129 136 140 140 145 148 148 143 141 141 139 134 136 140 129 126 131 131 135 136 133 136 140 137 137 134 132 127 127 121 115 109 105 104 106 100 97 90 91 80 62 30 27 14 66 52 61 76 75 58 51 22 355 81 304 7 356 356 356 341 332 341 7 12 356 357 11 347 324 332 346
129 132 130 131 134 136 141 147 145 144 142 140 136 132 125 120 119 122 127 136 136 134 140 141 142 142 141 140 135 131 129 121 122 123 124 132 121 101 94 99 88 72 85 86 77 71 82 84 72 67 60 63 59 30 17 344 3 114 98 343 351 341 346 337 9 10 356 359 359 348 329 340 346 350
136 136 137 137 140 148 151 155 152 148 148 143 143 138 133 131 130 134 144 143 141 138 139 140 143 147 144 140 140 142 139 138 138 135 137 133 125 125 127 111 100 83 132 68 47 48 38 49 48 50 50 51 41 11 317 305 351 350 8 310 325 335 1 354 0 360 6 1 348 329 327 263 230 241
129 128 132 139 144 148 150 150 150 148 148 148 139 137 136 140 142 143 146 144 141 143 145 146 148 145 141 146 141 135 137 145 146 148 148 142 138 138 125 99 76 53 75 56 48 36 36 25 21 16 7 356 281 289 300 284 277 271 297 136 43 351 355 349 6 355 6 1 334 344 0 357 17 4
133 137 143 143 146 153 152 152 148 145 138 135 132 136 134 134 141 148 147 147 145 146 149 148 148 151 151 151 150 149 148 149 151 155 153 149 150 153 152 148 98 32 73 66 42 44 27 345 325 324 310 295 315 257 241 298 20 4 357 350 58 46 340 357 5 360 8 344 344 359 1 3 352 355
139 139 141 152 152 153 149 146 150 144 141 143 145 143 139 144 150 152 150 151 146 149 145 151 156 155 155 157 155 150 151 158 163 163 163 165 157 148 141 125 105 77 67 59 30 24 350 328 328 9 51 137 225 300 42 30 12 0 344 331 341 38 71 41 28 24 18 17 12 12 352 345 336 5
143 146 150 153 149 148 150 149 151 148 144 144 146 143 145 150 154 157 150 151 155 154 156 155 158 158 159 162 160 159 156 165 170 170 167 170 163 151 136 125 104 83 72 68 1 311 350 358 45 69 84 68 42 339 33 23 18 349 352 355 355 339 7 60 91 52 42 63 49 31 6 339 333 358
150 149 152 153 153 151 151 151 150 149 146 148 146 149 157 159 161 157 156 157 161 161 160 155 159 163 164 163 160 163 169 167 168 169 173 173 163 149 143 128 119 101 80 58 85 67 41 44 40 30 57 48 12 4 25 6 22 18 3 344 342 359 9 355 6 116 152 125 56 36 20 358 328 297
157 156 152 159 159 155 153 150 151 151 147 146 151 157 161 164 159 156 162 164 167 161 159 160 161 168 163 162 163 172 178 168 167 173 165 157 158 159 156 141 121 100 71 27 91 81 53 63 59 49 70 56 34 14 5 16 18 5 14 1 8 6 11 9 6 5 10 17 24 16 10 19 20 4